Location: Ammerl�gen
(47.2167°N, 9.6000°E)
Time: 08:12:58
(UTC+00:00)

RS-15 - Pass Details

Date: 13 December 2021
Orbit: 1882 x 2162 km, 64.8° (Epoch: 17 January)

Event Time Altitude Azimuth Distance (km) Brightness Sun altitude
Exits shadow 03:55:57 39° 312° (NW) 2,856 8.5 -30.1°
Maximum altitude 03:58:07 42° 335° (NNW) 2,780 8.5 -29.7°
Drops below altitude 10° 04:09:36 10° 44° (NE) 4,677 10.5 -27.8°
Sets 04:13:30 0° 52° (NE) 5,693 11.1 -27.1°
